Regional Weather Roundup
Issued by NWS Upton, NY

Current Version | Previous Version | Graphics & Text | Print | Product List | Glossary Off
Versions: 1 2 3 4 5 6 7 8 9 10 11 12 13 14 15 16 17 18 19 20 21 22 23 24 25 26 27 28 29 30 31 32 33 34 35 36 37 38 39 40 41 42 43 44 45 46 47 48 49 50
146 ASUS41 KOKX 252109 RWROKX REGIONAL WEATHER ROUNDUP NATIONAL WEATHER SERVICE NEW YORK NY 500 PM EDT SUN JUN 25 2017 NOTE: "FAIR" INDICATES FEW OR NO CLOUDS BELOW 12,000 FEET WITH NO SIGNIFICANT WEATHER AND/OR OBSTRUCTIONS TO VISIBILITY. NYZ071-072-176-178-NJZ106-104-252200- NEW YORK CITY METRO AREA CITY SKY/WX TMP DP RH WIND PRES REMARKS Central Park SUNNY 77 61 57 E5 29.95F Bronx Bot Gard N/A 77 59 53 SE1 29.92F LaGuardia APRT PTSUNNY 80 56 43 S12 29.92F Kennedy INTL PTSUNNY 77 63 61 S16 29.93F Breezy Point N/A 70 N/A N/A S14G21 N/A Newark/Liberty PTSUNNY 83 59 44 CALM 29.91F Teterboro PTSUNNY 79 58 48 S6 29.90 $$ NYZ177-179-078>081-252200- LONG ISLAND NEW YORK CITY SKY/WX TMP DP RH WIND PRES REMARKS Jones Beach N/A 73 N/A N/A S10 N/A Matinecock PT NOT AVBL Farmingdale NOT AVBL MacArthur/ISP PTSUNNY 76 57 51 SW9 29.93S Shirley CLOUDY 75 58 55 SW9 29.94S Mt Sinai Harb N/A N/A N/A N/A NW3 N/A Westhampton MOSUNNY 75 54 47 SW10 29.96 East Hampton PTSUNNY 74 55 51 SW8 29.94R Montauk N/A 76 56 49 VRB6 29.95S $$ NYZ052-065-067-252200- HUDSON VALLEY CITY SKY/WX TMP DP RH WIND PRES REMARKS White Plains NOT AVBL Larchmont Harb N/A 72 N/A N/A S12 N/A Croton O-T Hud N/A 77 N/A N/A S6 N/A Newburgh MOSUNNY 79 61 53 SW14 29.93S Montgomery MOSUNNY 78 59 51 SW10 29.90F Poughkeepsie MOSUNNY 77 57 50 S7 29.89 Albany MOSUNNY 78 50 37 W13 29.89F $$ NJZ001-105-106-008-010-013-015-019>022-104-252200- NEW JERSEY CITY SKY/WX TMP DP RH WIND PRES REMARKS Newark/Liberty PTSUNNY 83 59 44 CALM 29.91F Teterboro PTSUNNY 79 58 48 S6 29.90 Caldwell LGT RAIN 72 63 73 CALM 29.93 Somerville MOSUNNY 84 56 38 VRB6 29.90 Linden FAIR 85 53 33 NW13 29.91F Perth Amboy N/A 81 N/A N/A W15 N/A Sussex SUNNY 79 53 40 SW10 29.92 Andover N/A 79 54 41 SW9 29.93F Trenton MOSUNNY 83 57 41 W8 29.92 Millville SUNNY 83 61 47 SW7 29.94F Atlantic City SUNNY 83 58 42 S12 29.94F Wrightstown MOSUNNY 84 57 39 SW14 29.92S Toms River PTSUNNY 82 61 48 SE15 29.93F Belmar SUNNY 79 59 50 SE10 29.94F $$ PAZ047>061-062-071-252200- EASTERN PENNSYLVANIA CITY SKY/WX TMP DP RH WIND PRES REMARKS Philadelphia PTSUNNY 85 55 35 W12G21 29.94S Allentown MOSUNNY 82 55 39 W9 29.93 Scranton MOSUNNY 79 48 33 W14G25 29.94S $$ CTZ002-004>006-009-010-012-RIZ004-006-007-MAZ004-011-015-252200- SOUTHERN NEW ENGLAND IN CT CITY SKY/WX TMP DP RH WIND PRES REMARKS Bradley INTL PTSUNNY 76 59 55 S10 29.90F Hartford CLOUDY 72 62 71 CALM 29.90F Danbury MOSUNNY 76 60 57 W9 29.93 Wtrbury/Oxford MOSUNNY 73 57 56 SW6 29.94F Bridgeport CLOUDY 74 65 73 CALM 29.92 Meriden CLOUDY 75 59 57 S9 29.92F New Haven PTSUNNY 72 63 73 SW5 29.93S Chester MOCLDY 73 59 60 SW6 29.94F Groton CLOUDY 72 62 71 SW10 29.92S Wilimantic LGT RAIN 69 60 73 NW8 29.93R IN RI CITY SKY/WX TMP DP RH WIND PRES REMARKS Providence PTSUNNY 79 55 43 SW13 29.89S Block Island MOSUNNY 74 59 59 SW16 29.94S Westerly CLOUDY 77 58 51 SW12G21 29.93S IN MA CITY SKY/WX TMP DP RH WIND PRES REMARKS Boston CLOUDY 79 49 34 W18G30 29.87R Worcester MOSUNNY 72 54 53 W5 29.91F Westfield MOSUNNY 80 58 46 SW14 29.88F Provincetown SUNNY 78 59 51 S15 29.89F Nantucket SUNNY 70 61 73 S10 29.93F $$ ANZ330-335-338-340-345-350-353-355-252200- COASTAL MARINE OBSERVATIONS STATION/POSITION TIME SKY/WX TEMP WIND PRES VSBY WAVE AIR SEA DIR/SP/G HT/PER (UTC) (F) (DEG/KT/KT) (MB) (MI) (FT/S) NY HARB ENTRANCE 1950 71 69 170/ 12/ 14 1013.6 2/ 8 20 S FIRE ISLAND 2050 72 72 170/ 10/ 12 1013.2 3/ 8 GREAT SOUTH BAY 2030 73 77 200/ 14/ 16 N/A 23 SSW MONTAUK P 1950 70 68 1014.2 4/ 8 15 E BARNEGAT LI 2030 68 N/A 2/ 8 HUDSON CANYON 1950 70 69 130/ 4/ 6 1014.6 3/ 8 KINGS POINT 2024 79 68 CALM 1013.5 EXECUTION ROCKS 2045 72 180/ 6/ 6 N/A CENTRAL LI SOUND NOT AVBL EASTERN LI SOUND NOT AVBL ROBBINS REEF 2024 170/ 13/ 16 1013.8 $$ >>>>>>>>>>>>>>>>>>>>>>>>>>>> KEY <<<<<<<<<<<<<<<<<<<<<<<<<<< > < > SKY/WX - Sky Condition/Present Weather < > TMP - Temperature in Fahrenheit < > DP - Dew Point in Fahrenheit < > RH - Relative Humidity in Percent < > WIND - Direction (from) and Speed in MPH < > PRES - Mean Sea Level Pressure (inches of Hg) < > WCI - Wind Chill Index < > VSB - VISIBILITY IN MILES < > HX - HEAT INDEX < > TC - TEMPERATURE IN CELSIUS < > VRB - VARIABLE WIND DIRECTION < > < >>>>>>>>>>>>>>>>>>>>>>>>>>>> KEY <<<<<<<<<<<<<<<<<<<<<<<<<<<

USA.gov is the U.S. government's official web portal to all federal, state and local government web resources and services.